Weather History for St. Francis, KS

Change the Weather History Date:

Thursday, November 1, 2012

  Actual Average Record
Temperature  
Mean Temperature 59 °F -  
Max Temperature 79 °F 59 °F 66 °F (2014)
Min Temperature 39 °F 31 °F 30 °F (2014)
Degree Days  
Heating Degree Days 6    
Growing Degree Days 9 (Base 50)    
Moisture  
Dew Point 28 °F    
Average Humidity 43    
Maximum Humidity 75    
Minimum Humidity 10    
Precipitation  
Precipitation 0.00 in - - ()
Sea Level Pressure  
Sea Level Pressure 29.98 in    
Wind  
Wind Speed 8 mph ()    
Max Wind Speed 17 mph    
Max Gust Speed 23 mph    
Visibility 10.0 miles    
Events      
Averages and records for this station are not official NWS values.
T = Trace of Precipitation, MM = Missing Value Source: Averaged Metar Reports

Daily Weather History Graph

Daily Weather History Graph

Search for Another Location

Airport:

Trip Planner

Search our weather history database for the weather conditions in past years. The results will help you decide how hot, cold, wet, or windy it might be!

Date:

Astronomy

Nov. 01, 2012 Rise Set
Actual Time 8:16 AM CDT 6:44 PM CDT
Civil Twilight 7:48 AM CDT 7:12 PM CDT
Nautical Twilight 7:16 AM CDT 7:44 PM CDT
Astronomical Twilight 6:45 AM CDT 8:15 PM CDT
Moon 8:43 PM CDT (11/1) 10:50 AM CDT (11/1)
Length of Visible Light 11h 24m
Length of Day
10h 28m
Waning Gibbous, 93% of the Moon is Illuminated
Nov 1
Waning Gibbous
Nov 6
Last Quarter
Nov 13
New
Nov 20
First Quarter
Nov 28
Full

Hourly Weather History & Observations

Time (CDT) Temp. Windchill Dew Point Humidity Pressure Visibility Wind Dir Wind Speed Gust Speed Precip Events Conditions
12:15 AM 44.6 °F 40.7 °F 30.7 °F 58% 30.08 in 10.0 mi SW 6.9 mph - N/A   Clear
12:35 AM 45.1 °F 40.8 °F 30.6 °F 57% 30.09 in 10.0 mi WSW 8.1 mph - N/A   Clear
12:55 AM 42.6 °F 37.8 °F 30.2 °F 61% 30.09 in 10.0 mi WSW 8.1 mph - N/A   Clear
1:15 AM 43.5 °F 37.9 °F 30.9 °F 61% 30.08 in 10.0 mi SW 10.4 mph - N/A   Clear
1:35 AM 44.2 °F 39.2 °F 30.7 °F 59% 30.08 in 10.0 mi SW 9.2 mph - N/A   Clear
1:55 AM 43.7 °F 38.6 °F 30.7 °F 60% 30.09 in 10.0 mi SW 9.2 mph - N/A   Clear
2:15 AM 42.8 °F 37.5 °F 30.9 °F 63% 30.09 in 10.0 mi WSW 9.2 mph - N/A   Clear
2:35 AM 42.4 °F 37.0 °F 31.1 °F 64% 30.09 in 10.0 mi WSW 9.2 mph - N/A   Clear
2:55 AM 42.6 °F 37.2 °F 30.9 °F 63% 30.08 in 10.0 mi SW 9.2 mph - N/A   Clear
3:15 AM 41.7 °F 36.1 °F 31.1 °F 66% 30.08 in 10.0 mi WSW 9.2 mph - N/A   Clear
3:35 AM 41.0 °F 35.8 °F 31.1 °F 68% 30.08 in 10.0 mi SW 8.1 mph - N/A   Clear
3:55 AM 42.6 °F 36.3 °F 31.6 °F 65% 30.07 in 10.0 mi WSW 11.5 mph - N/A   Clear
4:15 AM 41.9 °F 35.9 °F 32.0 °F 68% 30.07 in 10.0 mi WSW 10.4 mph - N/A   Clear
4:35 AM 40.5 °F 34.1 °F 31.8 °F 71% 30.06 in 10.0 mi SW 10.4 mph - N/A   Clear
4:55 AM 40.1 °F 34.1 °F 31.8 °F 72% 30.06 in 10.0 mi WSW 9.2 mph - N/A   Clear
5:15 AM 40.6 °F 34.8 °F 31.8 °F 71% 30.06 in 10.0 mi WSW 9.2 mph - N/A   Clear
5:35 AM 40.3 °F 33.9 °F 31.8 °F 72% 30.06 in 10.0 mi WSW 10.4 mph - N/A   Clear
5:55 AM 39.2 °F 33.0 °F 31.5 °F 74% 30.06 in 10.0 mi WSW 9.2 mph - N/A   Clear
6:35 AM 40.1 °F 34.1 °F 31.6 °F 72% 30.05 in 10.0 mi WSW 9.2 mph - N/A   Clear
7:15 AM 39.7 °F 33.2 °F 31.6 °F 73% 30.04 in 10.0 mi WSW 10.4 mph - N/A   Clear
7:35 AM 40.1 °F 32.7 °F 31.6 °F 72% 30.04 in 10.0 mi SW 12.7 mph - N/A   Clear
7:55 AM 40.6 °F 34.3 °F 31.5 °F 70% 30.04 in 10.0 mi WSW 10.4 mph - N/A   Clear
8:15 AM 39.7 °F 32.7 °F 31.5 °F 72% 30.04 in 10.0 mi WSW 11.5 mph - N/A   Clear
8:35 AM 39.2 °F 33.0 °F 31.3 °F 73% 30.04 in 10.0 mi WSW 9.2 mph - N/A   Clear
8:55 AM 39.4 °F 37.2 °F 32.0 °F 75% 30.04 in 10.0 mi WSW 3.5 mph - N/A   Clear
9:15 AM 42.4 °F 38.1 °F 32.0 °F 67% 30.04 in 10.0 mi WSW 6.9 mph - N/A   Clear
9:35 AM 45.1 °F 41.4 °F 32.4 °F 61% 30.04 in 10.0 mi WSW 6.9 mph - N/A   Clear
9:55 AM 47.3 °F - 32.4 °F 56% 30.04 in 10.0 mi WSW 5.8 mph - N/A   Clear
10:15 AM 49.3 °F - 32.5 °F 53% 30.04 in 10.0 mi WSW 5.8 mph - N/A   Clear
10:35 AM 50.9 °F - 33.1 °F 51% 30.04 in 10.0 mi WSW 4.6 mph - N/A   Clear
10:55 AM 53.6 °F - 32.9 °F 45% 30.04 in 10.0 mi WSW 5.8 mph - N/A   Clear
11:15 AM 56.3 °F - 32.4 °F 40% 30.03 in 10.0 mi West 4.6 mph - N/A   Clear
11:35 AM 59.4 °F - 32.4 °F 36% 30.03 in 10.0 mi Calm Calm - N/A   Clear
11:55 AM 64.2 °F - 32.0 °F 30% 30.02 in 10.0 mi South 3.5 mph - N/A   Clear
12:15 PM 69.6 °F - 31.3 °F 24% 30.01 in 10.0 mi Calm Calm - N/A   Clear
12:55 PM 75.0 °F - 25.0 °F 16% 29.98 in 10.0 mi South 9.2 mph - N/A   Clear
1:15 PM 75.6 °F - 23.7 °F 15% 29.97 in 10.0 mi SSE 13.8 mph - N/A   Clear
1:35 PM 76.5 °F - 22.8 °F 14% 29.96 in 10.0 mi South 13.8 mph - N/A   Clear
1:55 PM 77.2 °F - 21.9 °F 13% 29.95 in 10.0 mi South 11.5 mph 16.1 mph N/A   Clear
2:15 PM 78.1 °F - 20.7 °F 12% 29.94 in 10.0 mi South 11.5 mph 19.6 mph N/A   Clear
2:35 PM 78.1 °F - 19.8 °F 11% 29.92 in 10.0 mi South 16.1 mph - N/A   Clear
2:55 PM 79.2 °F - 19.2 °F 11% 29.92 in 10.0 mi South 15.0 mph 18.4 mph N/A   Clear
3:15 PM 77.4 °F - 19.8 °F 12% 29.91 in 10.0 mi South 15.0 mph 20.7 mph N/A   Clear
3:35 PM 79.2 °F - 17.6 °F 10% 29.91 in 10.0 mi South 13.8 mph - N/A   Clear
3:55 PM 79.7 °F - 17.6 °F 10% 29.90 in 10.0 mi South 17.3 mph 23.0 mph N/A   Clear
4:15 PM 78.4 °F - 17.8 °F 10% 29.90 in 10.0 mi South 15.0 mph 20.7 mph N/A   Clear
4:35 PM 76.5 °F - 19.2 °F 12% 29.89 in 10.0 mi South 10.4 mph 17.3 mph N/A   Clear
4:55 PM 76.5 °F - 20.8 °F 13% 29.89 in 10.0 mi SSE 10.4 mph 17.3 mph N/A   Clear
5:15 PM 74.1 °F - 23.0 °F 15% 29.88 in 10.0 mi SSE 10.4 mph - N/A   Clear
5:35 PM 74.8 °F - 22.3 °F 14% 29.88 in 10.0 mi South 9.2 mph - N/A   Clear
5:55 PM 73.4 °F - 23.2 °F 15% 29.88 in 10.0 mi South 9.2 mph - N/A   Clear
6:15 PM 69.6 °F - 24.6 °F 18% 29.88 in 10.0 mi SSE 9.2 mph - N/A   Clear
6:35 PM 67.6 °F - 24.4 °F 20% 29.88 in 10.0 mi SSE 10.4 mph - N/A   Clear
6:55 PM 64.4 °F - 24.8 °F 22% 29.88 in 10.0 mi SSE 10.4 mph - N/A   Clear
7:15 PM 62.8 °F - 26.1 °F 25% 29.88 in 10.0 mi SSE 9.2 mph - N/A   Clear
7:35 PM 59.9 °F - 26.4 °F 28% 29.88 in 10.0 mi SSE 10.4 mph - N/A   Clear
7:55 PM 59.2 °F - 26.6 °F 29% 29.88 in 10.0 mi SSE 10.4 mph - N/A   Clear
8:15 PM 58.1 °F - 26.6 °F 30% 29.88 in 10.0 mi SSE 11.5 mph - N/A   Clear
8:35 PM 54.7 °F - 27.9 °F 36% 29.88 in 10.0 mi SE 9.2 mph - N/A   Clear
8:55 PM 53.6 °F - 28.0 °F 37% 29.88 in 10.0 mi SE 4.6 mph - N/A   Clear
9:15 PM 52.2 °F - 28.4 °F 40% 29.88 in 10.0 mi Calm Calm - N/A   Clear
9:35 PM 50.7 °F - 29.1 °F 43% 29.88 in 10.0 mi North 3.5 mph - N/A   Clear
9:55 PM 51.4 °F - 29.3 °F 43% 29.88 in 10.0 mi NNE 4.6 mph - N/A   Clear
10:15 PM 52.3 °F - 29.5 °F 42% 29.88 in 10.0 mi Calm Calm - N/A   Clear
10:35 PM 56.3 °F - 28.8 °F 35% 29.87 in 10.0 mi Calm Calm - N/A   Clear
10:55 PM 56.8 °F - 28.9 °F 34% 29.87 in 10.0 mi SW 3.5 mph - N/A   Clear
11:15 PM 57.2 °F - 28.9 °F 34% 29.86 in 10.0 mi SSW 5.8 mph - N/A   Clear
11:35 PM 55.9 °F - 28.9 °F 36% 29.87 in 10.0 mi Calm Calm - N/A   Clear
11:55 PM 53.6 °F - 29.8 °F 40% 29.87 in 10.0 mi Calm Calm - N/A   Clear